Regional Weather Roundup
Issued by NWS

Home | Current Version | Previous Version | Text Only | Print | Product List | Glossary On
Versions: 1 2 3 4 5 6 7 8 9 10 11 12 13 14 15 16 17 18 19 20 21 22 23 24 25 26 27 28 29 30 31 32 33 34 35 36 37 38 39 40 41 42 43 44 45 46 47 48 49 50
000
ASUS43 KMPX 280110
RWRMN
WEATHER ROUNDUP FOR MINNESOTA
NATIONAL WEATHER SERVICE TWIN CITIES/CHANHASSEN MN
800 PM CDT SAT AUG 27 2016


NOTE: "FAIR" INDICATES FEW OR NO CLOUDS BELOW 12,000 FEET WITH NO
SIGNIFICANT WEATHER AND/OR OBSTRUCTIONS TO VISIBILITY. N/A MEANS
CURRENT SKY AND/OR WEATHER CONDITIONS ARE NOT AVAILABLE.

MNZ060>063-068>070-280200-
   Twin Cities Metro

CITY           SKY/WX    TMP DP  RH WIND       PRES   REMARKS
TWIN CITIES    CLOUDY    69  61  75 CALM      30.02R
ST PAUL        CLOUDY    66  63  90 S5        30.02R
CRYSTAL        MOCLDY    66  60  81 CALM      30.00S
BLAINE         MOCLDY    66  66 100 CALM      30.01S
LAKEVILLE      CLOUDY    64  64 100 CALM      30.02S
EDEN PRAIRIE   MOCLDY    68  62  81 CALM      30.01R
LAKEVILLE      CLOUDY    64  64 100 CALM      30.02S
SOUTH ST PAUL  CLOUDY    67  65  94 CALM      30.02R
LAKE ELMO      CLOUDY    64  64 100 S3        30.03S
$$
MNZ001>005-007-008-013>017-022>024-027-028-280200-
   Northwest Minnesota

CITY           SKY/WX    TMP DP  RH WIND       PRES   REMARKS
BEMIDJI        CLOUDY    58  56  92 SE9       29.99F
HALLOCK        CLEAR     64  63  94 S7        29.90R
ROSEAU         PTCLDY    63  57  82 S6        29.95R
WARROAD        CLOUDY    63  57  82 SE3       29.95S
THIEF RVR FALL PTCLDY    63  59  87 S6        29.96R
CROOKSTON      CLOUDY    63  57  82 S10       29.94R
FOSSTON        CLOUDY    63  61  94 CALM      29.97R
DETROIT LAKES  TSTM      64  61  88 CALM      30.02R
MOORHEAD       CLOUDY    66  59  77 SE6       29.96R
PARK RAPIDS    PTCLDY    66  57  72 S7        30.00R
MAHNOMEN       LGT RAIN  62  58  88 S7        29.97S
$$
MNZ006-009>011-018-025>026-280200-
   North Central Minnesota

CITY           SKY/WX    TMP DP  RH WIND       PRES   REMARKS
BAUDETTE       CLOUDY    59  56  89 SE6       29.96S
FLAG ISLAND    PTCLDY    63  57  82 S3        29.94S HAZE
INTL FALLS     CLOUDY    55  54  96 CALM      29.98R
WASKISH        CLOUDY    57  55  94 SE5       29.98S
BIG FORK       CLOUDY    55  54  94 SE3       30.00S
LONGVILLE      PTCLDY    61  57  88 CALM      30.01R
GRAND RAPIDS   MOCLDY    55  54  96 SE3       30.05R
CRANE LAKE     CLOUDY    54  54 100 S1        30.03F
ORR            CLOUDY    54  52  94 CALM      29.98F
COOK           CLOUDY    55  54  94 SE3       30.02F
WALKER         MOCLDY    61  58  90 E3        30.01R
$$
MNZ012-019>021-037-280200-
   Northeast Minnesota

CITY           SKY/WX    TMP DP  RH WIND       PRES   REMARKS
DULUTH         LGT RAIN  61  60  97 CALM      30.04S
ELY            RAIN      61  54  77 CALM      30.04R
HIBBING        CLOUDY    54  54 100 E5        30.04F
EVELETH        PTCLDY    58  55  92 CALM      30.06F
DULUTH HARBOR  CLOUDY    64  61  88 N5        30.03S
TWO HARBORS    HVY RAIN  63  57  82 CALM      30.02S
SILVER BAY     LGT RAIN  63  59  88 NE3       30.03R
GRAND MARAIS     N/A     61  50  67 NE5       30.03S
G MARAIS ARPRT CLOUDY    55  45  67 E6        30.06F
$$
MNZ029>031-032-039>041-046>048-054>057-064-280200-
   West Central Minnesota

CITY           SKY/WX    TMP DP  RH WIND       PRES   REMARKS
FERGUS FALLS   CLEAR     64  61  88 S7        29.98R
WHEATON        CLEAR     68  63  83 SE9       29.98R
MORRIS         CLEAR     66  61  82 SE5       29.97F
ALEXANDRIA     CLEAR     65  58  78 S8        30.00S
ELBOW LAKE     FAIR      64  59  83 SE7       29.99R
WADENA         CLEAR     64  57  77 S5        30.00R
GLENWOOD       CLEAR     63  59  88 S6        30.00S
APPLETON       CLEAR     66  61  82 SE7       29.97S
BENSON         CLEAR     66  57  72 S3        29.99S
ORTONVILLE     CLEAR     68  61  77 SE3       29.97R
MADISON        CLEAR     66  61  82 SE5       29.98R
WILLMAR        FAIR      66  63  88 NE3       30.02R
$$
MNZ033>034-036-042>043-049>051-058-059-280200-
   Central Minnesota

CITY           SKY/WX    TMP DP  RH WIND       PRES   REMARKS
ST CLOUD       PTCLDY    62  62 100 SE3       30.01S
SAUK CENTRE    FAIR      63  59  87 SE3       30.00S
PAYNESVILLE    CLEAR     63  63  97 SE3       30.01F
AITKIN         CLOUDY    64  57  77 SE3       30.02R
PINE RIVER     CLEAR     61  57  88 SE3       30.04R
BRAINERD       CLEAR     61  58  90 SE3       30.02R
STAPLES        CLEAR     63  55  77 S3        30.01R
LONG PRAIRIE   FAIR      63  59  88 E5        30.01S
LITTLE FALLS   PTCLDY    63  57  82 CALM      30.02R
LITCHFIELD     CLEAR     66  63  88 CALM      30.02R
BUFFALO        MOCLDY    66  62  85 NE3       30.02S
MAPLE LAKE     PTCLDY    64  62  94 CALM      30.02S
HUTCHINSON     PTCLDY    67  64  90 CALM      30.02S
$$
MNZ037-044-045-052-053-280200-
   East Central Minnesota

CITY           SKY/WX    TMP DP  RH WIND       PRES   REMARKS
PRINCETON        N/A     64  63  94 CALM      30.01F
MORA           CLOUDY    59  59 100 CALM      30.05R
CAMBRIDGE      CLOUDY    64  61  88 CALM      30.00S
RUSH CITY      LGT RAIN  63  61  95 SE3       30.02S
MOOSE LAKE     CLOUDY    61  59  94 CALM      30.02R
HINCKLEY       CLOUDY    61  61 100 CALM      30.03R
CLOQUET        DRIZZLE   61  59  94 CALM      30.04S
MCGREGOR       MOCLDY    61  59  94 SE3       30.04R
$$
MNZ071>073-080-081-089-090-097-098-280200-
   Southwest Minnesota

CITY           SKY/WX    TMP DP  RH WIND       PRES   REMARKS
MONTEVIDEO     CLEAR     66  61  82 S5        30.01S
GRANITE FALLS  CLEAR     72  64  75 CALM      30.01S
CANBY          CLEAR     70  64  79 E3        29.99S
MARSHALL       CLEAR     73  63  70 CALM      30.00R
REDWOOD FALLS  MOCLDY    68  62  81 S3        30.00R
OLIVIA         CLEAR     70  63  78 CALM      30.00S
PIPESTONE      CLEAR     70  63  78 S3        30.01R
WINDOM         CLEAR     70  63  78 S6        30.02R
WORTHINGTON    CLEAR     67  63  87 S5        30.02S
JACKSON          N/A     68  61  77 SW3       30.03R
TRACY          CLEAR     69  64  84 CALM      30.01R
SLAYTON        CLEAR     68  63  83 S3        30.02R
$$
MNZ065>067-074>077-082>085-091>093-280200-
   South Central Minnesota

CITY           SKY/WX    TMP DP  RH WIND       PRES   REMARKS
MANKATO        CLEAR     70  63  78 CALM      30.01S
NEW ULM          N/A     70  63  78 CALM      30.01R
ST JAMES       CLEAR     63  61  94 CALM      30.02R
FAIRMONT       CLEAR     70  64  81 CALM      30.02R
GLENCOE        CLOUDY    69  65  89 CALM      30.01R
FARIBAULT      CLEAR     64  63  94 CALM      30.03R
OWATONNA       MOCLDY    66  63  88 CALM      30.03R
WASECA         CLEAR     64  61  88 CALM      30.04R
ALBERT LEA     PTCLDY    70  66  88 CALM      30.02S
$$
MNZ078>079-086>088-094>096-280200-
   Southeast Minnesota

CITY           SKY/WX    TMP DP  RH WIND       PRES   REMARKS
ROCHESTER      CLOUDY    68  66  93 CALM      30.04R
RED WING       CLOUDY    68  66  94 CALM      30.01R
STANTON        CLOUDY    68  64  88 CALM      30.01R
DODGE CENTER   PTCLDY    66  63  88 CALM      30.04R
WINONA         CLOUDY    70  66  88 SE3       30.02S
AUSTIN         PTCLDY    70  64  83 CALM      30.03R
PRESTON        MOCLDY    68  64  86 CALM      30.04S
$$
ABBREVIATIONS USED IN REMARKS
   TC - TEMPERATURES IN CELSIUS
  WCI - WIND CHILL INDEX
   HX - HEAT INDEX
  VSB - VISIBILITY
$$




USA.gov is the U.S. government's official web portal to all federal, state and local government web resources and services.